Location: Lombard
(41.8800°N, 88.0080°W)
Time: 07:08:52
(UTC-05:00)

Vanguard 3 - Pass Details

Date: 02 February 2023
Orbit: 508 x 3249 km, 33.4° (Epoch: 27 March)

Event Time Altitude Azimuth Distance (km) Brightness Sun altitude
Rises 20:42:53 0° 257° (WSW) 4,769 11.8 -40.0°
Reaches altitude 10° 20:45:33 10° 254° (WSW) 4,083 11.2 -40.5°
Enters shadow 20:56:51 62° 183° (S) 2,739 9.5 -42.5°
